Regional Weather Roundup
Issued by NWS

Home | Current Version | Previous Version | Text Only | Print | Product List | Glossary Off
Versions: 1 2 3 4 5 6 7 8 9 10 11 12 13 14 15 16 17 18 19 20 21 22 23 24 25 26 27 28 29 30 31 32 33 34 35 36 37 38 39 40 41 42 43 44 45 46 47 48 49 50

000
ASUS43 KLOT 220400
RWRIL

ILLINOIS REGIONAL WEATHER ROUNDUP
NATIONAL WEATHER SERVICE CHICAGO/ROMEOVILLE IL
1100 PM CDT SUN SEP 21 2014

NOTE: "FAIR" INDICATES FEW OR NO CLOUDS BELOW 12,000 FEET WITH NO
SIGNIFICANT WEATHER AND/OR OBSTRUCTIONS TO VISIBILITY.

* THESE STATIONS ARE NOT UNDER NWS QUALITY CONTROL. THEY ALSO MAY NOT
  REPORT WEATHER SUCH AS PRECIPITATION OR FOG.

ILZ001-002-007-009-015-016-024-220500-
NORTHWEST ILLINOIS

CITY           SKY/WX    TMP DP  RH WIND       PRES   REMARKS
MOLINE         CLEAR     57  47  69 N5        30.17R
STERLING*      CLEAR     52  45  76 N3        30.16R
$$

ILZ003-004-008-010-011-017-018-220500-
NORTH CENTRAL ILLINOIS

CITY           SKY/WX    TMP DP  RH WIND       PRES   REMARKS
ROCKFORD       CLEAR     52  45  77 CALM      30.19R
FREEPORT*      CLEAR     49  46  89 NW3       30.19S
ROCHELLE*      CLEAR     48  44  87 N3        30.16R
$$

ILZ005-006-012>014-019>023-220500-
NORTHEAST ILLINOIS

CITY           SKY/WX    TMP DP  RH WIND       PRES   REMARKS
CHICAGO-OHARE  CLEAR     54  44  69 N5        30.14R
CHICAGO-MIDWAY CLEAR     56  46  69 N8        30.13S
AURORA         CLEAR     47  43  86 NW5       30.15R
LANSING*       CLEAR     54  45  70 N3        30.13S
WAUKEGAN       CLEAR     49  42  77 NW6       30.14R
DUPAGE AIRPORT CLEAR     48  43  82 NE5       30.14R
WHEELING       CLEAR     50  45  83 CALM      30.16R
NORTHERLY ISL    N/A     57  44  62 N10         N/A
$$

LMZ740>746-220500-
SOUTHERN LAKE MICHIGAN

STATION/POSITION SKY/WX   TEMP    WIND        PRES    VSBY  WAVE
                          AIR SEA DIR/SP/G                  HT/PER
                          (F)     (DEG/KT/KT) (MB)    (MI)  (FT/S)
SOUTHERN BUOY              55 61  350/ 19/ 23 1019.7R         7/ 6
WAUKEGAN HARBOR            53     340/  8/ 10   N/A
HARRISON CRIB              58     350/ 20/ 22   N/A
BURNHAM HARBOR             57     320/ 13/ 16   N/A
CALUMET HARBOR             57     340/  8/ 17 1018.8R
MICHIGAN CITY              57     350/ 21/ 25   N/A
MICHIGAN CITY 6N           58 64   10/ 16/ 21   N/A           7/ 7
ST. JOSEPH                 57 65   10/ 19/ 27   N/A           9/ 6
$$

ILZ025>027-034>036-040-047-049-050-058-095>099-220500-
WEST-CENTRAL ILLINOIS

CITY           SKY/WX    TMP DP  RH WIND       PRES   REMARKS
QUINCY         CLEAR     54  49  83 N6        30.19R
GALESBURG*     CLEAR     52  50  92 NW5       30.18R
MACOMB*        CLEAR     52  50  92 NW6       30.20R
$$

ILZ028>032-037-038-041>044-048-051>054-059>061-220500-
CENTRAL ILLINOIS

CITY           SKY/WX    TMP DP  RH WIND       PRES   REMARKS
DECATUR        CLEAR     57  51  80 NW12      30.15R
PEORIA         CLEAR     57  51  80 NW5       30.16R
SPRINGFIELD    CLEAR     55  51  86 NW5       30.16S
TAYLORVILLE    NOT AVBL
$$

ILZ033-039-045-046-055>057-062-063-220500-
EAST-CENTRAL ILLINOIS

CITY           SKY/WX    TMP DP  RH WIND       PRES   REMARKS
CHAMPAIGN      CLEAR     54  51  90 NW8       30.13R
MATTOON        CLEAR     52  49  89 NW8       30.12S
$$

ILZ079-100>102-220500-
SOUTHWEST ILLINOIS

CITY           SKY/WX    TMP DP  RH WIND       PRES   REMARKS
BELLEVILLE     CLEAR     60  52  75 W6        30.15R
CAHOKIA*       CLEAR     63  51  65 N12       30.17R
SPARTA*        CLEAR     59  51  74 N5        30.16R
$$

ILZ064>066-069>071-074>076-080>082-084>086-088>090-092>094-220500-
SOUTH-CENTRAL ILLINOIS

CITY           SKY/WX    TMP DP  RH WIND       PRES   REMARKS
CARBONDALE     CLEAR     62  50  64 N7        30.13R
MT. VERNON     CLEAR     59  48  67 N5        30.15R
$$

ILZ067-068-072-073-078-083-087-091-220500-
SOUTHEAST ILLINOIS

CITY           SKY/WX    TMP DP  RH WIND       PRES   REMARKS
LAWRENCEVILLE  CLEAR     58  51  78 N9        30.12R
ROBINSON*      CLEAR     58  53  81 NW6       30.12R
$$

ABBREVIATIONS USED IN REMARKS
   TC - TEMPERATURE IN CELSIUS
  WCI - WIND CHILL INDEX
   HX - HEAT INDEX
  VSB - VISIBILITY
$$



USA.gov is the U.S. government's official web portal to all federal, state and local government web resources and services.